Location: Albany
(35.0000°S, 118.0000°E)
Time: 06:23:47
(UTC-04:00)

ADEOS Rocket - Visible Passes

Search period start: 27 September 2016 00:00
Search period end: 07 October 2016 00:00
Orbit: 860 x 1306 km, 98.7° (Epoch: 25 September)

Date Brightness Start Highest point End Pass type
(mag) Time Alt. Az. Time Alt. Az. Time Alt. Az.
27 Sep 4.0 14:45:29 39° ESE 14:45:31 39° ESE 14:50:37 10° S visible
27 Sep 4.0 16:32:25 21° WSW 16:32:25 21° WSW 16:35:28 10° SW visible
28 Sep 5.4 13:55:40 13° E 13:57:00 14° ESE 13:59:51 10° SSE visible
28 Sep 2.8 15:42:36 60° WSW 15:42:36 60° WSW 15:47:30 10° SSW visible
29 Sep 3.6 14:52:46 45° E 14:53:05 46° ESE 14:58:21 10° S visible
29 Sep 4.1 16:39:42 18° W 16:39:42 18° W 16:42:39 10° SW visible
30 Sep 5.2 14:02:57 15° E 14:04:31 17° ESE 14:07:58 10° SSE visible
30 Sep 2.8 15:49:53 53° W 15:49:53 53° W 15:55:02 10° SSW visible
01 Oct 3.3 15:00:04 52° E 15:00:40 55° ESE 15:06:04 10° S visible
01 Oct 4.2 16:47:00 15° W 16:47:00 15° W 16:49:40 10° WSW visible
02 Oct 5.0 14:10:15 17° E 14:12:03 20° ESE 14:16:00 10° SSE visible
02 Oct 3.0 15:57:11 44° WNW 15:57:14 44° W 16:02:32 10° SSW visible
03 Oct 3.0 15:07:22 57° ENE 15:08:14 66° ESE 15:13:45 10° S visible
03 Oct 4.4 16:54:18 12° W 16:54:18 12° W 16:56:24 10° WSW visible
04 Oct 4.7 14:17:32 19° E 14:19:34 24° ESE 14:23:56 10° SSE visible
04 Oct 3.2 16:04:29 36° WNW 16:04:53 36° W 16:10:00 10° SSW visible
05 Oct 2.7 15:14:40 57° NNE 15:15:50 79° ESE 15:21:25 10° S visible
06 Oct 4.5 14:24:51 21° ENE 14:27:06 28° ESE 14:31:49 10° S visible
06 Oct 3.4 16:11:47 29° WNW 16:12:33 30° W 16:17:25 10° SW visible
